Danville, VA

11:37 PM EDT on April 27, 2017 (GMT -0400)
Danville Regional

Weather History for KDAN - June, 2013

Change the Weather History Date:

Tuesday, June 25, 2013

  Actual Average Record
Temperature  
Mean Temperature 80 °F 77 °F  
Max Temperature 90 °F 87 °F 101 °F (1952)
Min Temperature 69 °F 67 °F 53 °F (1972)
Degree Days  
Heating Degree Days 0 0  
Month to date heating degree days 0 0  
Since 1 June heating degree days 0 0  
Since 1 July heating degree days 3778 3811  
Cooling Degree Days 15 12  
Month to date cooling degree days 242 234  
Year to date cooling degree days 404 378  
Since 1 June cooling degree days 242 234  
Growing Degree Days 29 (Base 50)    
Moisture  
Dew Point 69 °F    
Average Humidity 72    
Maximum Humidity 97    
Minimum Humidity 47    
Precipitation  
Precipitation 0.00 in 0.13 in 1.19 in (1965)
Month to date precipitation 5.08 3.26  
Year to date precipitation 25.29 21.14  
Snow  
Snow 0.00 in - - ()
Month to date snowfall 0.0  
Since 1 June snowfall 0.0  
Since 1 July snowfall 1.7  
Snow Depth 0.00 in    
Sea Level Pressure  
Sea Level Pressure 30.04 in    
Wind  
Wind Speed 5 mph (SW)    
Max Wind Speed 14 mph    
Max Gust Speed 18 mph    
Visibility 10 miles    
Events      
T = Trace of Precipitation, MM = Missing Value Source: NWS Daily Summary

Daily Weather History Graph

Daily Weather History Graph

Search for Another Location

Airport or City:

Trip Planner

Search our weather history database for the weather conditions in past years. The results will help you decide how hot, cold, wet, or windy it might be!

Date:

Astronomy

Jun. 25, 2013 Rise Set
Actual Time 6:00 AM EDT 8:39 PM EDT
Civil Twilight 5:29 AM EDT 9:10 PM EDT
Nautical Twilight 4:51 AM EDT 9:48 PM EDT
Astronomical Twilight 4:09 AM EDT 10:30 PM EDT
Moon 10:29 PM EDT (6/25) 8:33 AM EDT (6/25)
Length of Visible Light 15h 40m
Length of Day
14h 39m
Waning Gibbous, 93% of the Moon is Illuminated
Jun 25
Waning Gibbous
Jun 30
Last Quarter
Jul 8
New
Jul 15
First Quarter
Jul 22
Full

Hourly Weather History & Observations

Time (EDT) Temp. Heat Index Dew Point Humidity Pressure Visibility Wind Dir Wind Speed Gust Speed Precip Events Conditions
12:53 AM 72.0 °F - 69.1 °F 91% 30.08 in - WSW 3.5 mph - N/A   Clear
1:53 AM 71.1 °F - 69.1 °F 93% 30.09 in - South 5.8 mph - N/A   Clear
2:53 AM 71.1 °F - 68.0 °F 90% 30.07 in - SSW 4.6 mph - N/A   Clear
3:53 AM 70.0 °F - 66.9 °F 90% 30.07 in - SW 4.6 mph - N/A   Clear
4:53 AM 69.1 °F - 66.9 °F 93% 30.06 in - SSW 3.5 mph - N/A   Clear
5:53 AM 69.1 °F - 66.9 °F 93% 30.08 in - SSW 4.6 mph - N/A   Clear
6:53 AM 70.0 °F - 68.0 °F 93% 30.07 in - SW 3.5 mph - N/A   Clear
7:53 AM 73.0 °F - 70.0 °F 90% 30.08 in - WSW 4.6 mph - N/A   Clear
8:53 AM 78.1 °F - 71.1 °F 79% 30.08 in - West 8.1 mph - N/A   Clear
9:53 AM 80.1 °F 83.8 °F 72.0 °F 76% 30.08 in - North - - N/A   Clear
10:53 AM 82.9 °F 88.0 °F 72.0 °F 69% 30.09 in - North - - N/A   Clear
11:53 AM 84.9 °F 91.4 °F 73.0 °F 67% 30.08 in 10.0 mi WSW 6.9 mph - N/A   Clear
12:53 PM 87.1 °F 92.8 °F 71.1 °F 59% 30.07 in 10.0 mi West 9.2 mph - N/A   Clear
1:53 PM 89.1 °F 95.0 °F 71.1 °F 55% 30.05 in 10.0 mi Variable 5.8 mph - N/A   Partly Cloudy
2:53 PM 88.0 °F 90.7 °F 66.9 °F 49% 30.02 in 10.0 mi WSW 8.1 mph - N/A   Clear
3:53 PM 86.0 °F 89.4 °F 68.0 °F 55% 30.01 in 10.0 mi WSW 4.6 mph - N/A   Clear
4:53 PM 89.1 °F 92.1 °F 66.9 °F 48% 30.00 in 10.0 mi WSW 5.8 mph - N/A   Clear
5:53 PM 89.1 °F 92.1 °F 66.9 °F 48% 29.99 in 10.0 mi WSW 5.8 mph - N/A   Clear
6:53 PM 88.0 °F 92.9 °F 70.0 °F 55% 29.98 in 10.0 mi SSW 4.6 mph - N/A   Clear
7:53 PM 81.0 °F 83.3 °F 66.9 °F 62% 29.98 in 10.0 mi SSW 6.9 mph - N/A   Clear
8:53 PM 78.1 °F - 68.0 °F 71% 29.98 in 10.0 mi Calm Calm - N/A   Clear
9:53 PM 75.0 °F - 68.0 °F 79% 30.01 in 10.0 mi SW 5.8 mph - N/A   Clear
10:53 PM 75.9 °F - 68.0 °F 76% 30.01 in 10.0 mi West 3.5 mph - N/A   Clear
11:53 PM 73.9 °F - 68.0 °F 82% 30.00 in 10.0 mi South 3.5 mph - N/A   Clear